Home   Weather   Spain   Murcia   Past weeks
Flag for Spain

Past Weather in Murcia, Spain — Yesterday and Last 2 Weeks

Currently: 57 °F. Passing clouds. (Weather station: Murcia / San Javier, Spain). See more current weather

Past Weather in Murcia — Graph

°F

Murcia Temperature Yesterday

Maximum temperature yesterday: 61 °F (at 1:00 pm)
Minimum temperature yesterday: 54 °F (at 5:00 am)
Average temperature yesterday: 57 °F

High & Low Weather Summary for the Past Weeks

 TemperatureHumidityPressure
High66 °F (Feb 22, 1:30 pm)100% (Feb 20, 1:00 am)30.57 "Hg (Feb 20, 1:00 am)
Low46 °F (Feb 22, 7:00 am)28% (Feb 22, 1:30 pm)29.62 "Hg (Feb 21, 3:00 pm)
Average58 °F78%30.21 "Hg
* Reported Feb 20 1:00 am — Mar 7 1:30 am, Murcia. Weather by CustomWeather, © 2021

Note: Actual official high and low records may vary slightly from our data, if they occured in-between our weather recording intervals... More about our weather records

Murcia Weather History for the Previous 24 Hours

Scroll right to see more
 ConditionsComfort  
Time TempWeatherWind HumidityBarometerVisibility
1:30 am
Sun, Mar 7
57 °FMostly cloudy.22 mph100%30.09 "Hg4 mi
1:00 am55 °FLight rain. Low clouds.22 mph100%30.09 "Hg5 mi
12:30 am55 °FLight rain. Passing clouds.21 mph100%30.09 "Hg6 mi
12:00 am57 °FLight rain. Passing clouds.21 mph100%30.09 "Hg5 mi
11:30 pm
Sat, Mar 6
57 °FLight rain. Partly cloudy.17 mph100%30.12 "Hg5 mi
11:00 pm57 °FMostly cloudy.15 mph100%30.12 "Hg5 mi
10:30 pm57 °FLight rain. Overcast.14 mph100%30.15 "Hg6 mi
10:00 pm57 °FLight rain. Partly cloudy.14 mph100%30.15 "Hg5 mi
9:30 pm57 °FRain. Passing clouds.14 mph94%30.15 "Hg5 mi
9:00 pm59 °FPassing clouds.14 mph82%30.15 "Hg5 mi
8:30 pm57 °FPassing clouds.15 mph88%30.15 "Hg5 mi
8:00 pm57 °FPassing clouds.17 mph88%30.12 "Hg5 mi
7:30 pm57 °FPassing clouds.15 mph88%30.12 "Hg5 mi
7:00 pm59 °FPassing clouds.16 mph82%30.12 "Hg5 mi
6:30 pm59 °FPartly sunny.16 mph82%30.09 "Hg4 mi
6:00 pm59 °FScattered clouds.15 mph82%30.09 "Hg4 mi
5:30 pm59 °FScattered clouds.14 mph88%30.12 "Hg4 mi
5:00 pm59 °FPartly sunny.14 mph88%30.12 "Hg4 mi
4:30 pm59 °FPartly sunny.16 mph88%30.09 "Hg4 mi
4:00 pm59 °FPartly sunny.17 mph82%30.09 "Hg4 mi
3:30 pm59 °FPartly sunny.17 mph82%30.12 "Hg4 mi
3:00 pm59 °FPartly sunny.17 mph88%30.12 "Hg4 mi
2:30 pm59 °FLight rain. Partly sunny.16 mph88%30.12 "Hg4 mi
2:00 pm59 °FLight rain. Partly sunny.18 mph82%30.12 "Hg4 mi
1:30 pm61 °FLight rain. Partly sunny.17 mph83%30.15 "Hg4 mi
1:00 pm61 °FLight rain. Partly sunny.16 mph83%30.15 "Hg4 mi
12:30 pm59 °FPartly sunny.14 mph82%30.15 "Hg4 mi
12:00 pm59 °FPartly sunny.14 mph82%30.15 "Hg4 mi
11:30 am59 °FPartly sunny.14 mph82%30.15 "Hg6 mi
11:00 am59 °FPartly sunny.13 mph82%30.15 "Hg6 mi
10:30 am59 °FScattered clouds.15 mph82%30.15 "Hg6 mi
10:00 am59 °FPartly sunny.14 mph82%30.15 "Hg4 mi
9:30 am59 °FPartly sunny.14 mph82%30.15 "Hg4 mi
9:00 am57 °FPartly sunny.10 mph82%30.12 "Hg4 mi
8:30 am55 °FPartly sunny.8 mph88%30.12 "Hg4 mi
8:00 am55 °FPartly sunny.10 mph88%30.12 "Hg4 mi
7:30 am55 °FScattered clouds.9 mph88%30.12 "Hg6 mi
7:00 am54 °FPassing clouds.8 mph94%30.09 "Hg5 mi
6:30 am54 °FPassing clouds.8 mph94%30.09 "Hg6 mi
6:00 am54 °FPassing clouds.8 mph94%30.09 "Hg6 mi
5:30 am54 °FPartly cloudy.7 mph94%30.09 "Hg6 mi
5:00 am54 °FPartly cloudy.8 mph100%30.07 "Hg5 mi
4:30 am55 °FPartly cloudy.7 mph94%30.09 "Hg4 mi
4:00 am55 °FPartly cloudy.8 mph100%30.09 "Hg5 mi
3:30 am55 °FPassing clouds.8 mph94%30.09 "Hg5 mi
3:00 am55 °FPassing clouds.6 mph94%30.09 "Hg5 mi
2:30 am57 °FPartly cloudy.10 mph94%30.09 "Hg6 mi
Weather by CustomWeather, © 2021

See weather overview